Regional Weather Roundup
Issued by NWS State College, PA

Home | Current Version | Previous Version | Text Only | Print | Product List | Glossary Off
Versions: 1 2 3 4 5 6 7 8 9 10 11 12 13 14 15 16 17 18 19 20 21 22 23 24 25 26 27 28 29 30 31 32 33 34 35 36 37 38 39 40 41 42 43 44 45 46 47 48 49 50

000
ASUS41 KCTP 260703
RWRCTP

REGIONAL WEATHER ROUNDUP
NATIONAL WEATHER SERVICE STATE COLLEGE PA
300 AM EDT MON JUN 26 2017

Note: "fair" indicates few or no clouds below 12,000 feet with no
significant weather and/or obstructions to visibility.

* = STATION THAT DOES NOT REPORT PRECIPITATION /E.G. RAIN...SNOW...ETC/
    THUNDER OR FOG.

PAZ002>004-007>009-013>016-020>023-029>032-260800-
WESTERN PENNSYLVANIA

CITY           SKY/WX    TMP DP  RH WIND       PRES   REMARKS
ERIE           PTCLDY    58  50  75 SW7       30.03S
MEADVILLE      CLOUDY    56  50  80 W7        30.04F
FRANKLIN*      CLOUDY    52  45  76 SW5       30.06F
NEW CASTLE     FAIR      52  49  89 CALM      30.07S
BEAVER COUNTY  NOT AVBL
BUTLER*        CLEAR     52  45  76 CALM      30.06F
PITTSBURGH INT CLEAR     56  46  69 W3        30.06F
PITTSBURGH     CLEAR     59  43  55 SW9       30.07F
INDIANA*       CLEAR     52  52 100 CALM      30.10S
LATROBE        CLEAR     54  52  94 S5        30.09F
WASHINGTON CO* CLEAR     48  45  87 CALM      30.11S
$$

PAZ004>006-010>012-017>019-024>028-033>037-041-042-045-046-049>053-260800-
CENTRAL PENNSYLVANIA

CITY           SKY/WX    TMP DP  RH WIND       PRES   REMARKS
BRADFORD       CLEAR     42  42 100 CALM      30.04F
DUBOIS         CLEAR     51  44  77 SW3       30.05F
CLEARFIELD     CLEAR     52  51  97 CALM      30.06F
JOHNSTOWN      CLEAR     55  46  71 S3        30.09S
ALTOONA        CLEAR     56  51  84 CALM      30.08F
STATE COLLEGE  CLEAR     54  50  85 CALM      30.05F
WILLIAMSPORT   CLEAR     56  51  84 CALM      30.02F
SELINSGROVE    CLEAR     57  54  89 N5        30.04S
FT INDIANTOWN  CLEAR     60  51  72 SW6       30.03S
CAPITAL CITY   PTCLDY    64  49  57 CALM      30.04S
HARRISBURG     PTCLDY    67  51  56 N5        30.03S
YORK           CLOUDY    63  53  70 W5        30.05R
$$

PAZ038>040-043-044-047-048-054-055-060>062-067>071-260800-
EASTERN PENNSYLVANIA

CITY           SKY/WX    TMP DP  RH WIND       PRES   REMARKS
SCRANTON       CLEAR     56  52  86 SE3       30.02F
MOUNT POCONO   PTCLDY    51  49  92 NW6       30.03F
ALLENTOWN      PTCLDY    61  51  70 CALM      30.01F
QUAKERTOWN*    SUNNY     57  54  88 CALM      30.03S
READING        CLEAR     61  54  77 CALM      30.02S
LANCASTER      MOCLDY    63  53  70 W5        30.03S
COATESVILLE    SUNNY     61  50  67 NW5       30.05S
POTTSTOWN      CLEAR     61  50  67 NW3       30.04S
BLUE BELL      CLEAR     59  54  82 CALM      30.03S
DOYLESTOWN     CLEAR     60  53  77 CALM      30.01S
WILLOW GROVE   NOT AVBL
NORTH PHILA    CLEAR     67  51  56 NW7       30.02R
PHILADELPHIA   PTCLDY    71  46  40 NW9       30.01S
$$




USA.gov is the U.S. government's official web portal to all federal, state and local government web resources and services.